Radiation Dose at Monitoring Post of Fukushima Daini Nuclear Power Station
Date,Time,MP-1(microSv/h),MP-2(microSv/h),MP-3(microSv/h),MP-4(microSv/h),MP-5(microSv/h),MP-6(microSv/h),MP-7(microSv/h),Wind Direction,Wind Velocity(m/s),Rain
2016/12/05,00:00,0.395,0.234,0.398,0.371,0.345,0.193,0.165,south-southeast,1.0,No
2016/12/05,00:10,0.396,0.233,0.398,0.369,0.346,0.193,0.166,south,2.5,No
2016/12/05,00:20,0.396,0.234,0.398,0.371,0.344,0.191,0.164,southwest,1.9,No
2016/12/05,00:30,0.397,0.234,0.398,0.369,0.343,0.192,0.164,west,1.5,No
2016/12/05,00:40,0.397,0.233,0.400,0.371,0.346,0.192,0.165,west-southwest,1.7,No
2016/12/05,00:50,0.396,0.233,0.399,0.369,0.343,0.191,0.165,southwest,2.2,No
2016/12/05,01:00,0.394,0.234,0.399,0.369,0.345,0.192,0.164,west-southwest,2.8,Yes
2016/12/05,01:10,0.399,0.236,0.401,0.372,0.345,0.192,0.166,west,3.9,Yes
2016/12/05,01:20,0.399,0.237,0.399,0.371,0.344,0.193,0.166,west-southwest,4.2,Yes
2016/12/05,01:30,0.399,0.235,0.403,0.370,0.346,0.193,0.166,west,2.1,Yes
2016/12/05,01:40,0.400,0.235,0.399,0.373,0.344,0.193,0.166,northwest,2.9,Yes
2016/12/05,01:50,0.397,0.235,0.401,0.369,0.346,0.193,0.166,northwest,3.6,Yes
2016/12/05,02:00,0.396,0.234,0.400,0.369,0.346,0.193,0.166,west-northwest,3.7,Yes
2016/12/05,02:10,0.397,0.233,0.398,0.370,0.345,0.192,0.167,west,3.6,Yes
2016/12/05,02:20,0.396,0.235,0.400,0.369,0.346,0.193,0.165,west-northwest,3.6,Yes
2016/12/05,02:30,0.397,0.234,0.398,0.371,0.344,0.193,0.166,west-northwest,3.9,Yes
2016/12/05,02:40,0.396,0.234,0.398,0.370,0.344,0.192,0.164,west-northwest,2.7,Yes
2016/12/05,02:50,0.395,0.234,0.400,0.370,0.344,0.192,0.167,northwest,3.1,Yes
2016/12/05,03:00,0.397,0.235,0.397,0.371,0.343,0.192,0.165,west-northwest,3.9,No
2016/12/05,03:10,0.395,0.232,0.399,0.368,0.344,0.192,0.165,west-northwest,3.6,No
2016/12/05,03:20,0.398,0.233,0.398,0.370,0.344,0.192,0.166,west-southwest,1.1,No
2016/12/05,03:30,0.395,0.233,0.397,0.368,0.344,0.192,0.165,south-southwest,2.0,No
2016/12/05,03:40,0.396,0.232,0.399,0.369,0.347,0.191,0.166,southwest,3.1,No
2016/12/05,03:50,0.395,0.234,0.397,0.369,0.343,0.192,0.164,west-southwest,2.0,No
2016/12/05,04:00,0.393,0.233,0.399,0.369,0.345,0.191,0.165,south-southwest,3.6,Yes
2016/12/05,04:10,0.396,0.232,0.399,0.369,0.345,0.191,0.164,south-southwest,6.2,No
2016/12/05,04:20,0.394,0.233,0.396,0.369,0.343,0.191,0.164,southwest,8.1,No
2016/12/05,04:30,0.395,0.233,0.399,0.371,0.346,0.192,0.165,southwest,4.7,No
2016/12/05,04:40,0.397,0.232,0.396,0.369,0.344,0.191,0.163,southwest,5.0,No
2016/12/05,04:50,0.393,0.233,0.399,0.370,0.345,0.191,0.163,southwest,5.3,No
2016/12/05,05:00,0.395,0.232,0.396,0.368,0.342,0.192,0.163,west-southwest,3.9,No
2016/12/05,05:10,0.394,0.233,0.397,0.368,0.342,0.190,0.164,west,3.6,No
2016/12/05,05:20,0.393,0.233,0.399,0.369,0.344,0.191,0.164,west,3.7,No
2016/12/05,05:30,0.395,0.232,0.396,0.368,0.343,0.190,0.165,northwest,1.7,No
2016/12/05,05:40,0.394,0.231,0.399,0.369,0.345,0.190,0.163,north,3.1,No
2016/12/05,05:50,0.395,0.233,0.398,0.370,0.344,0.192,0.164,north-northwest,2.4,No
2016/12/05,06:00,0.395,0.233,0.397,0.368,0.344,0.190,0.165,north,3.2,No
2016/12/05,06:10,0.394,0.232,0.400,0.369,0.346,0.190,0.163,north,2.7,No
2016/12/05,06:20,0.396,0.233,0.398,0.369,0.344,0.190,0.164,north-northeast,1.9,No
2016/12/05,06:30,0.397,0.232,0.396,0.368,0.344,0.191,0.164,-,CALM,No
2016/12/05,06:40,0.396,0.231,0.398,0.368,0.345,0.190,0.163,northwest,1.2,No
2016/12/05,06:50,0.397,0.231,0.397,0.369,0.343,0.191,0.164,west-northwest,3.0,No
2016/12/05,07:00,0.395,0.231,0.398,0.368,0.344,0.190,0.164,west-northwest,7.0,No
2016/12/05,07:10,0.395,0.231,0.398,0.368,0.344,0.191,0.163,west-northwest,6.7,No
2016/12/05,07:20,0.394,0.232,0.398,0.367,0.343,0.192,0.163,west-northwest,6.6,No
2016/12/05,07:30,0.396,0.231,0.398,0.367,0.345,0.190,0.164,west-northwest,7.2,No
2016/12/05,07:40,0.392,0.232,0.399,0.369,0.344,0.190,0.163,west-northwest,6.7,No
2016/12/05,07:50,0.395,0.232,0.396,0.366,0.342,0.191,0.163,west-northwest,5.0,No
2016/12/05,08:00,0.394,0.231,0.399,0.368,0.346,0.191,0.163,northwest,6.4,No
2016/12/05,08:10,0.394,0.232,0.396,0.366,0.344,0.191,0.163,northwest,4.2,No
2016/12/05,08:20,0.396,0.233,0.395,0.366,0.344,0.190,0.164,west-northwest,6.4,No
2016/12/05,08:30,0.396,0.232,0.397,0.367,0.344,0.191,0.162,west-northwest,8.1,No
2016/12/05,08:40,0.394,0.232,0.396,0.367,0.342,0.190,0.163,west-northwest,9.3,No
2016/12/05,08:50,0.397,0.232,0.399,0.364,0.344,0.191,0.163,northwest,5.4,No
2016/12/05,09:00,0.396,0.232,0.397,0.368,0.342,0.191,0.164,north-northwest,5.2,No
2016/12/05,09:10,0.397,0.233,0.397,0.364,0.344,0.190,0.164,north-northwest,3.7,No
2016/12/05,09:20,0.393,0.231,0.397,0.366,0.341,0.192,0.163,north-northwest,2.8,No
2016/12/05,09:30,0.394,0.232,0.396,0.364,0.343,0.191,0.164,west-northwest,4.1,No
2016/12/05,09:40,0.393,0.231,0.397,0.368,0.343,0.191,0.163,north-northwest,5.4,No
2016/12/05,09:50,0.393,0.232,0.396,0.366,0.343,0.191,0.164,west-northwest,5.3,No
2016/12/05,10:00,0.395,0.230,0.399,0.367,0.342,0.191,0.164,west-northwest,5.9,No
2016/12/05,10:10,0.393,0.233,0.395,0.368,0.343,0.190,0.162,northwest,4.7,No
2016/12/05,10:20,0.392,0.232,0.397,0.366,0.340,0.191,0.164,northwest,6.4,No
2016/12/05,10:30,0.393,0.233,0.395,0.368,0.342,0.190,0.164,west-northwest,5.0,No
2016/12/05,10:40,0.390,0.233,0.399,0.365,0.342,0.190,0.162,northwest,5.7,No
2016/12/05,10:50,0.395,0.231,0.397,0.368,0.341,0.191,0.163,north-northwest,5.7,No
2016/12/05,11:00,0.394,0.231,0.397,0.365,0.344,0.191,0.164,northwest,8.5,No
2016/12/05,11:10,0.394,0.232,0.395,0.367,0.342,0.191,0.164,northwest,7.8,No
2016/12/05,11:20,0.395,0.232,0.398,0.369,0.342,0.189,0.165,northwest,11.3,No
2016/12/05,11:30,0.394,0.231,0.394,0.366,0.343,0.192,0.163,northwest,11.2,No
2016/12/05,11:40,0.395,0.232,0.398,0.368,0.340,0.190,0.163,west-northwest,9.5,No
2016/12/05,11:50,0.392,0.232,0.395,0.369,0.345,0.192,0.164,west-northwest,11.1,No
2016/12/05,12:00,0.396,0.231,0.399,0.366,0.343,0.192,0.163,west-northwest,11.2,No
2016/12/05,12:10,0.394,0.234,0.396,0.368,0.341,0.191,0.164,west-northwest,12.3,No
2016/12/05,12:20,0.395,0.232,0.397,0.366,0.345,0.191,0.164,west-northwest,10.1,No
2016/12/05,12:30,0.395,0.233,0.397,0.366,0.341,0.192,0.162,west-northwest,6.6,No
2016/12/05,12:40,0.393,0.232,0.396,0.367,0.341,0.190,0.164,west-northwest,5.3,No
2016/12/05,12:50,0.396,0.234,0.398,0.364,0.344,0.191,0.163,northwest,5.8,No
2016/12/05,13:00,0.394,0.232,0.395,0.368,0.343,0.191,0.162,west-northwest,6.4,No
2016/12/05,13:10,0.397,0.234,0.396,0.367,0.345,0.191,0.164,west,6.6,No
2016/12/05,13:20,0.395,0.232,0.397,0.365,0.342,0.190,0.164,west-northwest,7.7,No
2016/12/05,13:30,0.396,0.232,0.394,0.367,0.345,0.191,0.163,northwest,4.8,No
2016/12/05,13:40,0.393,0.232,0.397,0.369,0.342,0.191,0.164,northwest,3.1,No
2016/12/05,13:50,0.397,0.231,0.397,0.367,0.344,0.190,0.164,west-northwest,4.2,No
2016/12/05,14:00,0.395,0.233,0.397,0.364,0.343,0.191,0.164,northwest,3.6,No
2016/12/05,14:10,0.397,0.234,0.402,0.369,0.344,0.191,0.164,west-northwest,7.3,No
2016/12/05,14:20,0.394,0.231,0.397,0.366,0.344,0.190,0.164,west-northwest,3.5,No
2016/12/05,14:30,0.396,0.233,0.400,0.369,0.342,0.190,0.163,north-northwest,3.1,No
2016/12/05,14:40,0.395,0.233,0.395,0.370,0.343,0.190,0.163,northwest,4.5,No
2016/12/05,14:50,0.399,0.232,0.400,0.367,0.343,0.190,0.165,north,2.6,No
2016/12/05,15:00,0.395,0.232,0.396,0.371,0.344,0.191,0.164,north-northwest,1.4,No
2016/12/05,15:10,0.396,0.233,0.400,0.367,0.345,0.191,0.164,north,1.7,No
2016/12/05,15:20,0.396,0.233,0.397,0.370,0.345,0.190,0.163,north-northwest,2.4,No
2016/12/05,15:30,0.395,0.234,0.399,0.368,0.344,0.192,0.165,west,2.6,No
2016/12/05,15:40,0.396,0.232,0.398,0.369,0.343,0.191,0.164,north-northwest,1.9,No
2016/12/05,15:50,0.395,0.233,0.401,0.370,0.346,0.192,0.164,northwest,1.4,No
2016/12/05,16:00,0.395,0.233,0.399,0.368,0.343,0.191,0.165,northwest,2.5,No
2016/12/05,16:10,0.395,0.233,0.399,0.370,0.346,0.191,0.164,west-northwest,2.0,No
2016/12/05,16:20,0.397,0.233,0.399,0.368,0.343,0.191,0.164,northwest,3.3,No
2016/12/05,16:30,0.398,0.231,0.397,0.369,0.344,0.191,0.163,west-northwest,3.6,No
2016/12/05,16:40,0.395,0.233,0.401,0.369,0.346,0.191,0.165,west-northwest,2.4,No
2016/12/05,16:50,0.398,0.232,0.397,0.368,0.343,0.191,0.164,west-northwest,2.3,No
2016/12/05,17:00,0.395,0.233,0.401,0.371,0.344,0.192,0.163,northwest,2.8,No
2016/12/05,17:10,0.396,0.232,0.398,0.369,0.345,0.192,0.165,northwest,2.5,No
2016/12/05,17:20,0.398,0.231,0.399,0.369,0.345,0.191,0.164,northwest,3.1,No
2016/12/05,17:30,0.396,0.232,0.400,0.370,0.345,0.193,0.164,north,4.1,No
2016/12/05,17:40,0.398,0.233,0.398,0.369,0.343,0.191,0.164,northwest,1.9,No
2016/12/05,17:50,0.397,0.233,0.401,0.370,0.344,0.191,0.164,north,1.9,No
2016/12/05,18:00,0.395,0.232,0.397,0.369,0.345,0.192,0.164,north-northwest,2.3,No
2016/12/05,18:10,0.398,0.233,0.399,0.371,0.343,0.191,0.165,north-northwest,4.1,No
2016/12/05,18:20,0.396,0.232,0.398,0.369,0.344,0.191,0.164,north-northwest,1.8,No
2016/12/05,18:30,0.396,0.232,0.398,0.369,0.344,0.191,0.164,north-northwest,1.7,No
2016/12/05,18:40,0.396,0.232,0.400,0.371,0.344,0.190,0.164,north,2.8,No
2016/12/05,18:50,0.396,0.232,0.397,0.370,0.346,0.192,0.165,north,3.5,No
2016/12/05,19:00,0.395,0.231,0.400,0.370,0.344,0.191,0.163,north,2.7,No
2016/12/05,19:10,0.397,0.231,0.401,0.368,0.345,0.192,0.165,north-northeast,3.4,No
2016/12/05,19:20,0.395,0.233,0.398,0.369,0.345,0.192,0.164,north,3.1,No
2016/12/05,19:30,0.396,0.232,0.400,0.371,0.344,0.192,0.165,north,4.3,No
2016/12/05,19:40,0.396,0.233,0.397,0.370,0.344,0.192,0.164,north,4.3,No
2016/12/05,19:50,0.398,0.232,0.398,0.369,0.345,0.192,0.164,north,4.2,No
2016/12/05,20:00,0.396,0.233,0.399,0.371,0.343,0.192,0.164,north,2.5,No
2016/12/05,20:10,0.397,0.233,0.399,0.369,0.345,0.191,0.164,-,CALM,No
2016/12/05,20:20,0.398,0.232,0.401,0.371,0.344,0.192,0.165,south-southwest,0.8,No
2016/12/05,20:30,0.396,0.233,0.400,0.369,0.344,0.192,0.164,south-southwest,2.7,No
2016/12/05,20:40,0.396,0.233,0.398,0.370,0.346,0.192,0.164,south-southwest,1.5,No
2016/12/05,20:50,0.396,0.233,0.401,0.370,0.345,0.191,0.165,south-southwest,3.5,No
2016/12/05,21:00,0.395,0.232,0.398,0.369,0.343,0.192,0.165,south-southwest,3.9,No
2016/12/05,21:10,0.397,0.233,0.400,0.368,0.343,0.192,0.164,southwest,5.0,No
2016/12/05,21:20,0.399,0.233,0.400,0.372,0.346,0.191,0.165,west,5.7,No
2016/12/05,21:30,0.398,0.233,0.399,0.370,0.343,0.192,0.165,west,6.4,No
2016/12/05,21:40,0.397,0.233,0.400,0.370,0.345,0.191,0.164,west,5.8,No
2016/12/05,21:50,0.397,0.233,0.397,0.370,0.343,0.191,0.165,west,4.0,No
2016/12/05,22:00,0.396,0.233,0.399,0.368,0.345,0.193,0.165,west-northwest,4.3,No
2016/12/05,22:10,0.397,0.233,0.400,0.372,0.345,0.191,0.164,west,4.8,No
2016/12/05,22:20,0.395,0.233,0.399,0.369,0.343,0.192,0.163,west-southwest,6.1,No
2016/12/05,22:30,0.396,0.234,0.399,0.371,0.347,0.193,0.166,west-southwest,5.0,No
2016/12/05,22:40,0.396,0.233,0.399,0.369,0.344,0.191,0.164,west-southwest,5.3,No
2016/12/05,22:50,0.395,0.233,0.399,0.369,0.345,0.192,0.165,west,5.4,No
2016/12/05,23:00,0.397,0.235,0.401,0.373,0.345,0.193,0.164,west,8.4,Yes
2016/12/05,23:10,0.400,0.236,0.398,0.373,0.346,0.194,0.167,west,9.8,Yes
2016/12/05,23:20,0.399,0.237,0.403,0.371,0.349,0.195,0.167,west,9.5,Yes
2016/12/05,23:30,0.402,0.237,0.400,0.373,0.346,0.195,0.167,west,7.4,Yes
2016/12/05,23:40,0.400,0.235,0.402,0.373,0.347,0.193,0.167,west-southwest,7.8,No
2016/12/05,23:50,0.397,0.235,0.401,0.372,0.345,0.194,0.166,west-southwest,7.3,No
